Weather History for PAGN - January, 2014

Change the Weather History Date:

Monday, January 13, 2014

  Actual Average (PASI) Record (PASI)
Temperature  
Mean Temperature 92 °F -  
Max Temperature 124 °F 36 °F 53 °F (1981)
Min Temperature 59 °F 28 °F 8 °F (1974)
Cooling Degree Days 26    
Growing Degree Days 42 (Base 50)    
Moisture  
Dew Point 71 °F    
Average Humidity 93    
Maximum Humidity 100    
Minimum Humidity 72    
Precipitation  
Precipitation 0.23 in - - ()
Sea Level Pressure  
Sea Level Pressure 29.80 in    
Wind  
Wind Speed 5 mph (ESE)    
Max Wind Speed 10 mph    
Max Gust Speed -    
Visibility 7 miles    
Events Rain    
Averages and records for this station are not official NWS values.
T = Trace of Precipitation, MM = Missing Value Source: NWS Daily Summary

Daily Weather History Graph

Daily Weather History Graph

Search for Another Location

Airport or City:

Trip Planner

Search our weather history database for the weather conditions in past years. The results will help you decide how hot, cold, wet, or windy it might be!

Date:

Astronomy

Jan. 13, 2014 Rise Set
Actual Time 8:30 AM AKST 3:44 PM AKST
Civil Twilight 7:43 AM AKST 4:31 PM AKST
Nautical Twilight 6:53 AM AKST 5:21 PM AKST
Astronomical Twilight 6:06 AM AKST 6:08 PM AKST
Moon 2:09 PM AKST (1/13) 6:21 AM AKST (1/13)
Length of Visible Light 8h 48m
Length of Day
7h 13m
Waxing Gibbous, 95% of the Moon is Illuminated
Jan 13
Waxing Gibbous
Jan 15
Full
Jan 23
Last Quarter
Jan 30
New
Feb 6
First Quarter

Hourly Weather History & Observations

Time (AKST) Temp. Heat Index Dew Point Humidity Pressure Visibility Wind Dir Wind Speed Gust Speed Precip Events Conditions
12:25 AM 60.8 °F - 59.0 °F 94% 29.56 in 6.0 mi SSE 6.9 mph - 0.00 in Rain Light Rain
12:56 AM 61.0 °F - 59.0 °F 93% 29.59 in 9.0 mi SSE 5.8 mph - 0.01 in Rain Light Rain
1:09 AM 60.8 °F - 59.0 °F 94% 29.60 in 10.0 mi Variable 6.9 mph - 0.00 in Rain Light Rain
1:19 AM 62.6 °F - 60.8 °F 94% 29.61 in 4.0 mi South 6.9 mph - 0.01 in Rain Light Rain
1:56 AM 59.9 °F - 57.9 °F 93% 29.65 in 10.0 mi Variable 5.8 mph - 0.01 in   Overcast
2:11 AM 62.6 °F - 60.8 °F 94% 29.66 in 4.0 mi Variable 5.8 mph - 0.01 in Rain Light Rain
2:47 AM 62.6 °F - 60.8 °F 94% 29.68 in 10.0 mi South 4.6 mph - 0.01 in   Overcast
2:56 AM 62.6 °F - 60.8 °F 94% 29.69 in 10.0 mi Calm Calm - N/A   Overcast
3:56 AM 63.9 °F - 59.9 °F 87% 29.74 in 8.0 mi Variable 6.9 mph - 0.00 in Rain Light Rain
4:56 AM 72.0 °F - 70.0 °F 93% 29.79 in 10.0 mi SSE 9.2 mph - 0.01 in   Mostly Cloudy
5:56 AM 72.0 °F - 68.0 °F 87% 29.81 in 10.0 mi Calm Calm - 0.00 in   Clear
6:56 AM 66.9 °F - 65.8 °F 96% 29.84 in 10.0 mi Calm Calm - 0.00 in   Clear
7:56 AM 66.9 °F - 65.8 °F 96% 29.89 in 10.0 mi SSE 5.8 mph - N/A   Scattered Clouds
8:47 AM 69.8 °F - 66.2 °F 88% 29.93 in 3.0 mi Calm Calm - 0.01 in Rain Light Rain
8:56 AM 69.8 °F - 68.0 °F 94% 29.93 in 5.0 mi Calm Calm - N/A Rain Light Rain
9:04 AM 71.6 °F - 69.8 °F 94% 29.93 in 10.0 mi Calm Calm - 0.00 in Rain Light Rain
9:56 AM 70.0 °F - 68.9 °F 96% 29.97 in 10.0 mi Calm Calm - 0.00 in   Clear
10:56 AM 64.9 °F - 63.9 °F 96% 29.99 in 10.0 mi Calm Calm - N/A   Clear
11:56 AM 104.9 °F - - N/A% 30.01 in 10.0 mi Calm Calm - N/A   Clear
12:56 PM 120.9 °F - - N/A% 30.02 in 10.0 mi Calm Calm - N/A   Scattered Clouds
1:56 PM 110.8 °F - - N/A% 30.02 in 10.0 mi Calm Calm - N/A   Mostly Cloudy
2:56 PM 115.0 °F - - N/A% 30.01 in 10.0 mi Calm Calm - N/A   Partly Cloudy
3:56 PM 113.0 °F - - N/A% 29.99 in 10.0 mi Calm Calm - 0.00 in Rain Light Rain
4:15 PM 111.2 °F - - N/A% 29.98 in 5.0 mi Calm Calm - 0.01 in Rain Light Rain
4:25 PM 118.4 °F - - N/A% 29.97 in 5.0 mi Calm Calm - 0.01 in Rain Light Rain
4:56 PM 124.0 °F - - N/A% 29.94 in 6.0 mi Variable 4.6 mph - 0.03 in Rain Light Rain
5:56 PM 100.4 °F - - N/A% 29.89 in 5.0 mi Variable 4.6 mph - N/A Rain Light Rain
6:56 PM 95.0 °F - - N/A% 29.85 in 4.0 mi ESE 6.9 mph - 0.02 in Rain Light Rain
7:56 PM 82.9 °F 97.1 °F 81.9 °F 97% 29.81 in 5.0 mi East 9.2 mph - 0.04 in Rain Light Rain
8:56 PM 80.6 °F 88.1 °F 78.8 °F 94% 29.76 in 6.0 mi ESE 8.1 mph - N/A Rain Light Rain
9:42 PM 84.2 °F 103.5 °F 84.2 °F 100% 29.73 in 5.0 mi East 4.6 mph - 0.04 in Rain Light Rain
9:56 PM 86.9 °F 113.6 °F 86.0 °F 97% 29.74 in 6.0 mi Variable 5.8 mph - 0.05 in Rain Light Rain
10:20 PM 87.8 °F 111.7 °F 84.2 °F 89% 29.70 in 6.0 mi ENE 8.1 mph - 0.01 in Rain Light Rain
10:32 PM 80.6 °F 88.1 °F 78.8 °F 94% 29.70 in 4.0 mi East 6.9 mph - 0.02 in Rain Light Rain
10:56 PM 90.0 °F 107.2 °F 79.9 °F 72% 29.71 in 5.0 mi East 9.2 mph - 0.06 in Rain Light Rain
11:06 PM 87.8 °F 111.7 °F 84.2 °F 89% 29.70 in 3.0 mi East 8.1 mph - 0.02 in Rain Rain
11:14 PM 89.6 °F 119.2 °F 86.0 °F 89% 29.69 in 3.0 mi East 10.4 mph - 0.04 in Rain Rain
11:24 PM 87.8 °F 111.7 °F 84.2 °F 89% 29.68 in 2.5 mi ENE 4.6 mph - 0.06 in Rain Rain
11:31 PM 84.2 °F 103.5 °F 84.2 °F 100% 29.67 in 3.0 mi ENE 5.8 mph - 0.07 in Rain Rain
11:56 PM 87.8 °F 111.7 °F 84.2 °F 89% 29.66 in 3.0 mi Variable 4.6 mph - N/A Rain Rain